Location: Beuvrequen
(50.8014°N, 1.6652°E)
Time: 21:08:04
(UTC+00:00)

Cosmos 614 Rocket - Pass Details

Date: 16 October 2021
Orbit: 733 x 763 km, 74.1° (Epoch: 04 December)

Event Time Altitude Azimuth Distance (km) Brightness Sun altitude
Rises 19:16:49 0° 338° (NNW) 3,173 7.7 -22.5°
Reaches altitude 10° 19:19:14 10° 343° (NNW) 2,247 6.8 -22.9°
Enters shadow 19:24:00 53° 51° (NE) 908 4.1 -23.6°
